Погода в Денятине

Россия / Владимирская область     55°30′26″N   41°40′23″E
темп.,
°C
ветер,
м/с
пор.,
м/с
влажн.,
%
обл.,
%
осадки,
мм/ч
давл.,
гПа
погр.,
м
24 июля, сб
сб2400:00+12зсз378821 0.0 1007125
03:00+13сз3783100 0.0 1008180
06:00+13сз268317 0.0 1010235
09:00+17ссз4557100 0.0 1011849
12:00+19ссз4545100 0.1 10121915
15:00+19ссз3547100 0.1 1013987
18:00+18ссв345179 0.0 10151015
21:00+13ю11675 0.0 101711
25 июля, вс
вс2500:00+11з22737 0.0 101814
03:00+10зсз33715 0.0 102033
06:00+13сз22595 0.0 102167
09:00+20зсз11385 0.0 1021657
12:00+23зсз133086 0.0 10212705
15:00+23зсз242995 0.0 10212716
18:00+20ююз225098 0.0 102166
21:00+17ссз125182 0.0 102215
26 июля, пн
пн2600:00+15зсз225631 0.0 102329
03:00+12з226813 0.0 102430
06:00+15зюз226189 0.0 102461
09:00+18з2357100 0.0 1025246
12:00+23зюз243695 0.0 10241857
15:00+24зсз343612 0.0 10231914
18:00+24зсз35409 0.0 1023727
21:00+17сз22625 0.0 102315
27 июля, вт
вт2700:00+15з226577 0.0 102320
03:00+15з33645 0.0 102353
06:00+16зсз25708 0.0 1024125
09:00+23зсз23505 0.0 1023555
12:00+27зсз333567 0.0 10222687
15:00+26з233987 0.0 10211773
18:00+26зюз244222 0.0 1020336
21:00+21зсз385918 0.0 1020184
28 июля, ср
ср2800:00+17зсз22745 0.0 102031
03:00+16з22824 0.0 102015
06:00+18з23765 0.0 102094
09:00+24з34530 0.0 1019612
12:00+28з343719 0.0 10172403
15:00+24зсз135155 0.0 1016230
18:00+26ююз34468 0.0 1014315
21:00+20ююз3358100 0.0 101445